Location: Gniazdowice
(50.2124°N, 20.2673°E)
Time: 23:24:54
(UTC+00:00)

COBE Rocket - Pass Details

Date: 23 May 2024
Orbit: 678 x 776 km, 97.1° (Epoch: 22 June)

Event Time Altitude Azimuth Distance (km) Brightness Sun altitude
Rises 00:37:44 0° 11° (NNE) 3,125 8.7 -14.2°
Reaches altitude 10° 00:39:59 10° 11° (N) 2,215 7.6 -14.0°
Maximum altitude 00:44:51 82° 285° (WNW) 748 3.9 -13.6°
Enters shadow 00:48:29 19° 199° (SSW) 1,727 5.2 -13.3°
